Location: *
(45.1961°N, 1.9694°E)
Time: 13:56:26
(UTC+00:00)

CZ-4C R/B - Pass Details

Date: 25 August 2019
Orbit: 655 x 1346 km, 63.4° (Epoch: 20 September)

Event Time Altitude Azimuth Distance (km) Brightness Sun altitude
Exits shadow 23:28:17 26° 294° (WNW) 1,574 3.8 -33.9°
Maximum altitude 23:30:01 31° 326° (NNW) 1,463 3.8 -33.9°
Drops below altitude 10° 23:35:31 10° 28° (NNE) 2,717 5.4 -34.1°
Sets 23:38:40 0° 38° (NE) 3,796 6.2 -34.1°
